Latest Weather Observations for Cape Naturaliste

IDW60801

Issued at 9:02 am WST Friday 31 July 2015 (issued every 30 minutes, with the page automatically refreshed every 10 minutes)

About weather observations | Map of weather stations | Latest weather observations for WA | Other Formats
Station Details ID: 009519 Name: CAPE NATURALISTE Lat: -33.54 Lon: 115.02 Height: 109.0 m
Data from the previous 72 hours. | See also: Recent months at Cape Naturaliste
Date/Time
WST
Temp
°C
App
Temp
°C
Dew
Point
Rel
Hum
%
Delta-T
°C
Wind Press
QNH
hPa
Press
MSL
hPa
Rain
since 9 am
mm
Dir
 
Spd
km/h
Gust
km/h
Spd
kts
Gust
kts
31/09:00am 17.1 16.0 15.4 90 1.0 WSW 15 20 8 11 1012.1 1012.0 54.6
31/08:30am 17.1 15.1 15.6 91 0.9 W 20 24 11 13 1012.2 1012.1 54.6
31/08:00am 16.5 14.4 15.2 92 0.8 W 20 24 11 13 1011.9 1011.8 54.6
31/07:30am 15.6 13.1 14.1 91 0.9 W 20 24 11 13 1011.5 1011.4 54.6
31/07:00am 15.8 14.0 14.5 92 0.7 W 17 20 9 11 1011.3 1011.2 54.6
31/06:30am 16.4 14.8 15.1 92 0.8 WNW 17 20 9 11 1011.3 1011.2 54.6
31/06:00am 16.7 15.2 15.4 92 0.8 WNW 17 20 9 11 1011.2 1011.1 54.6
31/05:30am 16.7 15.6 15.4 92 0.8 WNW 15 20 8 11 1011.1 1011.0 54.6
31/05:00am 16.8 15.8 15.5 92 0.8 W 15 17 8 9 1011.2 1011.1 54.6
31/04:30am 16.6 15.9 15.3 92 0.8 WNW 13 15 7 8 1011.2 1011.1 54.6
31/04:00am 16.6 15.5 15.3 92 0.8 W 15 19 8 10 1011.1 1011.0 54.6
31/03:30am 16.3 14.7 15.0 92 0.8 WNW 17 19 9 10 1011.2 1011.1 54.6
31/03:00am 16.7 14.9 15.4 92 0.8 W 19 22 10 12 1011.2 1011.1 54.6
31/02:30am 17.0 15.3 15.7 92 0.8 W 19 22 10 12 1011.7 1011.6 54.6
31/02:00am 17.1 15.4 15.8 92 0.8 WNW 19 24 10 13 1012.1 1012.0 54.6
31/01:30am 17.3 15.5 16.0 92 0.8 WNW 20 26 11 14 1012.4 1012.3 54.6
31/01:00am 17.5 14.6 16.2 92 0.8 NW 26 33 14 18 1012.9 1012.9 54.6
31/12:30am 17.8 15.1 16.5 92 0.8 WNW 26 35 14 19 1013.0 1013.0 54.6
31/12:00am 17.6 13.6 16.3 92 0.8 WNW 32 41 17 22 1012.7 1012.6 54.6
 
Date/Time
WST
Temp
°C
App
Temp
°C
Dew
Point
Rel
Hum
%
Delta-T
°C
Wind Press
QNH
hPa
Press
MSL
hPa
Rain
since 9 am
mm
Dir
 
Spd
km/h
Gust
km/h
Spd
kts
Gust
kts
30/11:49pm 17.5 12.9 16.2 92 0.8 WNW 35 48 19 26 1012.6 1012.5 54.6
30/11:30pm 16.9 14.9 15.6 92 0.8 WNW 20 30 11 16 1012.9 1012.9 54.4
30/11:00pm 17.2 15.0 15.9 92 0.8 NW 22 30 12 16 1013.5 1013.5 50.0
30/10:30pm 16.9 13.0 15.6 92 0.8 NNW 30 43 16 23 1013.8 1013.8 42.4
30/10:00pm 17.0 12.8 15.7 92 0.8 NNW 32 52 17 28 1013.9 1013.9 41.8
30/09:59pm 17.0 13.2 15.7 92 0.8 NNW 30 52 16 28 1013.9 1013.9 41.8
30/09:58pm 17.1 13.7 15.8 92 0.8 NNW 28 44 15 24 1014.0 1014.0 41.8
30/09:30pm 16.7 14.7 15.4 92 0.8 W 20 26 11 14 1013.7 1013.7 41.8
30/09:08pm 17.1 11.2 15.8 92 0.8 NNW 41 61 22 33 1013.6 1013.6 38.4
30/09:05pm 17.4 11.3 16.3 93 0.7 N 43 61 23 33 1013.0 1013.0 38.4
30/09:00pm 16.9 10.6 15.6 92 0.8 N 43 54 23 29 1012.9 1012.9 38.0
30/08:41pm 16.4 12.7 15.1 92 0.8 N 28 46 15 25 1013.8 1013.8 36.6
30/08:30pm 16.5 11.6 15.2 92 0.8 N 35 44 19 24 1013.8 1013.8 35.4
30/08:00pm 17.6 14.4 16.3 92 0.8 N 28 50 15 27 1014.0 1014.0 35.0
30/07:30pm 17.6 15.2 16.3 92 0.8 N 24 33 13 18 1014.4 1014.4 26.0
30/07:08pm 17.6 13.6 16.1 91 0.9 N 32 50 17 27 1014.3 1014.3 23.8
30/07:00pm 17.9 15.5 16.4 91 0.9 N 24 30 13 16 1014.3 1014.3 22.8
30/06:30pm 17.8 15.0 16.3 91 0.9 N 26 35 14 19 1014.4 1014.4 22.8
30/06:00pm 17.4 15.3 16.1 92 0.8 NNW 22 30 12 16 1014.6 1014.6 22.8
30/05:30pm 17.3 15.1 16.0 92 0.8 NNW 22 43 12 23 1014.8 1014.8 22.8
30/05:00pm 16.9 17.0 15.6 92 0.8 NE 9 17 5 9 1014.5 1014.5 21.0
30/04:30pm 15.8 11.9 14.5 92 0.7 E 28 35 15 19 1014.2 1014.2 18.8
30/04:00pm 15.8 11.9 14.5 92 0.7 ESE 28 37 15 20 1014.5 1014.5 14.8
30/03:30pm 15.6 12.3 14.1 91 0.9 ESE 24 30 13 16 1015.1 1015.1 8.6
30/03:00pm 15.7 12.5 14.2 91 0.9 E 24 30 13 16 1015.7 1015.7 8.2
30/02:30pm 15.6 12.3 14.1 91 0.9 E 24 28 13 15 1015.9 1015.9 8.0
30/02:00pm 15.6 12.7 14.0 90 0.9 E 22 28 12 15 1016.4 1016.4 3.4
30/01:30pm 15.5 12.9 13.9 90 0.9 ESE 20 26 11 14 1017.0 1017.0 3.4
30/01:00pm 15.1 12.6 13.5 90 0.9 ESE 19 26 10 14 1017.5 1017.5 1.0
30/12:30pm 15.8 12.5 14.0 89 1.0 ESE 24 32 13 17 1017.8 1017.8 0.2
30/12:00pm 15.9 12.3 14.3 90 0.9 ESE 26 32 14 17 1018.8 1018.8 0.2
30/11:30am 16.5 13.6 15.2 92 0.8 ESE 24 30 13 16 1019.2 1019.1 0.2
30/11:00am 15.3 12.4 14.0 92 0.7 ESE 22 28 12 15 1019.4 1019.3 0.2
30/10:30am 14.3 11.1 13.2 93 0.6 E 22 28 12 15 1019.7 1019.6 0.2
30/10:00am 13.9 10.5 12.6 92 0.7 ESE 22 26 12 14 1019.9 1019.8 0.0
30/09:30am 13.5 10.0 12.2 92 0.7 ESE 22 28 12 15 1019.9 1019.8 0.0
30/09:00am 13.2 9.6 11.9 92 0.7 ESE 22 28 12 15 1019.9 1019.8 0.2
30/08:30am 12.9 8.8 11.6 92 0.7 ESE 24 32 13 17 1019.8 1019.7 0.2
30/08:00am 12.5 8.3 11.2 92 0.7 ESE 24 30 13 16 1019.6 1019.5 0.0
30/07:30am 12.1 7.8 10.8 92 0.7 ESE 24 30 13 16 1019.4 1019.3 0.0
30/07:00am 12.2 7.2 10.9 92 0.7 ESE 28 35 15 19 1019.2 1019.1 0.0
30/06:30am 12.1 7.8 10.8 92 0.7 ESE 24 32 13 17 1019.2 1019.1 0.0
30/06:00am 12.6 8.8 11.2 91 0.7 ESE 22 32 12 17 1019.0 1018.9 0.0
30/05:30am 13.0 9.7 11.6 91 0.7 ESE 20 24 11 13 1019.0 1018.9 0.0
30/05:00am 13.7 10.8 12.3 91 0.8 ESE 19 24 10 13 1018.8 1018.8 0.0
30/04:30am 13.3 10.3 11.9 91 0.8 ESE 19 24 10 13 1018.6 1018.6 0.0
30/04:00am 13.2 10.2 11.8 91 0.7 ESE 19 22 10 12 1019.0 1018.9 0.0
30/03:30am 13.3 10.7 11.9 91 0.8 ESE 17 20 9 11 1019.3 1019.2 0.0
30/03:00am 13.0 9.8 11.4 90 0.8 ESE 19 22 10 12 1019.2 1019.1 0.0
30/02:30am 13.2 10.5 11.6 90 0.9 SE 17 20 9 11 1019.1 1019.0 0.0
30/02:00am 13.0 10.2 11.2 89 1.0 SE 17 20 9 11 1019.5 1019.4 0.0
30/01:30am 13.6 11.7 11.8 89 1.0 SE 13 17 7 9 1019.6 1019.5 0.0
30/01:00am 13.5 11.2 11.6 88 1.0 ESE 15 17 8 9 1019.6 1019.5 0.0
30/12:30am 13.3 10.9 11.4 88 1.0 SE 15 15 8 8 1019.8 1019.7 0.0
30/12:00am 13.7 11.7 11.6 87 1.1 SE 13 17 7 9 1019.6 1019.5 0.0
 
Date/Time
WST
Temp
°C
App
Temp
°C
Dew
Point
Rel
Hum
%
Delta-T
°C
Wind Press
QNH
hPa
Press
MSL
hPa
Rain
since 9 am
mm
Dir
 
Spd
km/h
Gust
km/h
Spd
kts
Gust
kts
29/11:30pm 14.1 13.0 11.8 86 1.2 SSE 9 11 5 6 1019.6 1019.5 0.0
29/11:00pm 14.8 13.9 12.5 86 1.3 SSW 9 11 5 6 1019.4 1019.3 0.0
29/10:30pm 14.9 13.6 12.4 85 1.4 SSW 11 15 6 8 1019.6 1019.5 0.0
29/10:00pm 15.6 14.1 13.1 85 1.4 SW 13 19 7 10 1019.7 1019.6 0.0
29/09:30pm 15.6 13.4 13.3 86 1.3 SW 17 20 9 11 1019.5 1019.4 0.0
29/09:00pm 15.3 12.6 13.0 86 1.3 SW 19 20 10 11 1019.4 1019.3 0.0
29/08:30pm 15.3 13.4 13.0 86 1.3 WSW 15 20 8 11 1019.3 1019.2 0.0
29/08:00pm 15.5 13.7 13.2 86 1.3 WSW 15 19 8 10 1019.0 1018.9 0.0
29/07:30pm 15.7 13.5 13.4 86 1.3 W 17 20 9 11 1018.8 1018.8 0.0
29/07:00pm 15.7 13.9 13.2 85 1.4 W 15 19 8 10 1018.5 1018.5 0.0
29/06:30pm 15.8 13.9 13.1 84 1.5 W 15 20 8 11 1018.0 1018.0 0.0
29/06:00pm 15.9 13.9 12.8 82 1.7 W 15 19 8 10 1017.8 1017.8 0.0
29/05:30pm 16.6 14.7 12.9 79 2.1 W 15 17 8 9 1017.6 1017.6 0.0
29/05:00pm 17.9 16.3 13.8 77 2.3 WNW 15 19 8 10 1017.4 1017.4 0.0
29/04:30pm 18.8 17.3 14.1 74 2.7 WNW 15 20 8 11 1017.3 1017.3 0.0
29/04:00pm 19.3 17.7 15.0 76 2.5 NW 17 20 9 11 1017.3 1017.3 0.0
29/03:30pm 18.4 16.9 14.1 76 2.5 NW 15 20 8 11 1016.9 1016.9 0.0
29/03:00pm 18.7 17.4 14.8 78 2.3 NW 15 20 8 11 1016.7 1016.7 0.0
29/02:30pm 19.1 17.6 15.2 78 2.3 NW 17 20 9 11 1016.5 1016.5 0.0
29/02:00pm 18.5 17.0 15.2 81 1.9 NW 17 22 9 12 1016.4 1016.4 0.0
29/01:30pm 18.7 17.0 15.8 83 1.7 NW 19 24 10 13 1016.6 1016.6 0.0
29/01:00pm 17.5 16.8 15.5 88 1.2 NW 13 19 7 10 1016.9 1016.9 0.0
29/12:30pm 17.6 17.1 15.9 90 1.0 NW 13 17 7 9 1017.3 1017.3 0.0
29/12:00pm 17.2 17.8 15.7 91 0.9 N 7 11 4 6 1017.5 1017.5 0.0
29/11:30am 16.9 17.6 15.6 92 0.8 NE 6 9 3 5 1017.4 1017.4 0.0
29/11:00am 16.1 16.3 14.8 92 0.7 ESE 7 9 4 5 1017.7 1017.7 0.0
29/10:30am 15.2 14.7 13.9 92 0.7 ESE 9 11 5 6 1017.8 1017.8 0.0
29/10:00am 14.7 14.1 13.4 92 0.7 ESE 9 15 5 8 1017.9 1017.9 0.0
29/09:30am 14.4 13.3 13.1 92 0.7 ESE 11 13 6 7 1017.8 1017.8 0.0
29/09:00am 14.1 12.9 12.8 92 0.7 ESE 11 15 6 8 1017.5 1017.5 1.4
29/08:30am 13.6 12.6 12.3 92 0.7 ESE 9 13 5 7 1017.7 1017.7 1.4
29/08:00am 13.3 11.5 12.0 92 0.7 ESE 13 15 7 8 1017.4 1017.4 1.4
29/07:30am 12.8 10.4 11.5 92 0.7 ESE 15 17 8 9 1017.0 1017.0 1.4
29/07:00am 12.6 10.2 11.3 92 0.7 ESE 15 17 8 9 1016.8 1016.8 1.4
29/06:30am 12.2 10.0 10.9 92 0.7 ESE 13 15 7 8 1016.7 1016.7 1.4
29/06:00am 12.0 9.4 10.7 92 0.7 ESE 15 17 8 9 1016.4 1016.4 1.0
29/05:30am 12.3 9.8 11.0 92 0.7 ESE 15 15 8 8 1016.3 1016.3 1.0
29/05:00am 12.3 10.2 11.0 92 0.7 E 13 15 7 8 1016.4 1016.4 1.0
29/04:30am 12.3 10.2 11.0 92 0.7 ENE 13 15 7 8 1016.3 1016.3 1.0
29/04:00am 12.3 10.5 11.0 92 0.7 E 11 13 6 7 1016.5 1016.5 1.0
29/03:30am 12.5 10.8 11.2 92 0.7 E 11 15 6 8 1016.4 1016.4 1.0
29/03:00am 12.5 10.8 11.2 92 0.7 E 11 13 6 7 1016.3 1016.3 1.0
29/02:30am 12.9 11.3 11.6 92 0.7 E 11 13 6 7 1016.3 1016.3 1.0
29/02:00am 13.0 11.4 11.7 92 0.7 E 11 15 6 8 1016.5 1016.5 1.0
29/01:30am 13.0 11.1 11.7 92 0.7 E 13 17 7 9 1016.4 1016.4 1.0
29/01:00am 12.9 10.9 11.6 92 0.7 E 13 17 7 9 1016.6 1016.6 1.0
29/12:30am 12.9 10.9 11.6 92 0.7 ESE 13 15 7 8 1016.5 1016.5 1.0
29/12:00am 12.9 10.9 11.6 92 0.7 E 13 17 7 9 1016.5 1016.5 1.0
 
Date/Time
WST
Temp
°C
App
Temp
°C
Dew
Point
Rel
Hum
%
Delta-T
°C
Wind Press
QNH
hPa
Press
MSL
hPa
Rain
since 9 am
mm
Dir
 
Spd
km/h
Gust
km/h
Spd
kts
Gust
kts
28/11:30pm 12.9 10.6 11.6 92 0.7 E 15 19 8 10 1016.4 1016.4 1.0
28/11:00pm 12.8 10.4 11.5 92 0.7 E 15 20 8 11 1016.5 1016.5 1.0
28/10:30pm 12.5 10.0 11.2 92 0.7 ESE 15 19 8 10 1016.6 1016.6 1.0
28/10:00pm 12.1 9.1 10.8 92 0.7 ESE 17 19 9 10 1016.4 1016.4 1.0
28/09:30pm 12.1 8.7 10.7 91 0.7 SE 19 20 10 11 1016.5 1016.5 1.0
28/09:00pm 12.1 8.7 10.7 91 0.7 SE 19 24 10 13 1016.5 1016.5 1.0
28/08:30pm 12.0 8.4 10.6 91 0.7 SE 20 24 11 13 1016.2 1016.2 1.0
28/08:00pm 12.2 8.7 10.8 91 0.7 SE 20 24 11 13 1016.1 1016.1 1.0
28/07:30pm 12.2 8.7 10.8 91 0.7 SE 20 24 11 13 1015.9 1015.9 1.0
28/07:00pm 12.1 8.2 10.7 91 0.7 SE 22 26 12 14 1015.5 1015.5 1.0
28/06:30pm 12.1 8.1 10.5 90 0.8 ESE 22 26 12 14 1015.2 1015.2 1.0
28/06:00pm 12.2 7.9 10.6 90 0.8 ESE 24 28 13 15 1014.9 1014.9 1.0
28/05:30pm 12.4 7.7 10.8 90 0.8 E 26 32 14 17 1014.6 1014.6 1.0
28/05:00pm 12.4 8.1 10.6 89 0.9 ESE 24 30 13 16 1014.7 1014.7 0.8
28/04:30pm 12.4 9.8 10.6 89 0.9 ESE 15 20 8 11 1014.7 1014.7 0.6
28/04:00pm 12.5 8.2 10.6 88 1.0 ENE 24 30 13 16 1014.3 1014.3 0.6
28/03:30pm 12.8 8.9 10.9 88 1.0 ENE 22 28 12 15 1014.4 1014.4 0.6
28/03:00pm 13.0 9.5 10.9 87 1.1 ENE 20 24 11 13 1014.5 1014.5 0.6
28/02:30pm 13.2 9.3 10.9 86 1.2 ENE 22 28 12 15 1014.6 1014.6 0.4
28/02:00pm 13.1 9.2 10.8 86 1.2 ENE 22 28 12 15 1014.7 1014.7 0.4
28/01:30pm 13.3 8.5 10.3 82 1.6 ENE 26 32 14 17 1015.1 1015.1 0.4
28/01:00pm 13.7 8.9 10.3 80 1.8 NE 26 33 14 18 1015.5 1015.5 0.4
28/12:30pm 14.3 9.0 9.9 75 2.3 NNE 28 35 15 19 1016.0 1016.0 0.4
28/12:00pm 16.0 10.9 10.7 71 2.8 NE 28 35 15 19 1016.5 1016.5 0.4
28/11:30am 14.9 8.9 10.7 76 2.2 NE 33 43 18 23 1016.9 1016.9 0.4
28/11:00am 14.3 8.9 9.5 73 2.5 NE 28 33 15 18 1017.8 1017.8 0.4
28/10:30am 14.1 8.4 9.9 76 2.2 NE 30 37 16 20 1018.2 1018.2 0.2
28/10:00am 13.9 8.8 10.5 80 1.8 NE 28 35 15 19 1018.1 1018.1 0.2
28/09:30am 13.6 8.6 10.8 83 1.5 NE 28 33 15 18 1018.5 1018.5 0.2

Other Formats:

Comma delimited format used in spreadsheet applications
http://www.bom.gov.au/fwo/IDW60801/IDW60801.94600.axf

JavaScript Object Notation format (JSON) in row-major order
http://www.bom.gov.au/fwo/IDW60801/IDW60801.94600.json